This demonstration page uses our WeatherBlox Daily Observations layout. Learn more.

Left ArrowRight Arrow

Hourly Observations for March 21, 2016

Temp ( °F °C ) Dew Point ( °F °C ) Humidity (%) Winds ( mph kmh ) Pressure ( in mb ) Visibility ( mi km ) Precip ( " mm )
12:15 am 00:15 Clear 34 1 18 -8 51 51 S 14 22 30.21 1023 10 16 0.00 0.00
12:35 am 00:35 Clear 34 1 18 -8 51 51 S 14 22 30.21 1023 10 16 0.00 0.00
12:55 am 00:55 Clear 34 1 18 -8 51 51 SSW 14 22 30.21 1023 10 16 0.00 0.00
1:15 am 01:15 Clear 34 1 18 -8 51 51 S 13 20 30.21 1023 10 16 0.00 0.00
1:35 am 01:35 Clear 34 1 18 -8 51 51 SSW 13 20 30.21 1023 10 16 0.00 0.00
1:55 am 01:55 Clear 34 1 19 -7 56 56 SSW 14 22 30.18 1022 10 16 0.00 0.00
2:15 am 02:15 Clear 36 2 19 -7 52 52 SSW 16 26 30.18 1022 10 16 0.00 0.00
2:35 am 02:35 Clear 34 1 19 -7 56 56 SSW 13 20 30.18 1022 10 16 0.00 0.00
2:55 am 02:55 Clear 34 1 19 -7 56 56 SSW 10 17 30.18 1022 10 16 0.00 0.00
3:15 am 03:15 Clear 34 1 19 -7 56 56 SSW 12 19 30.15 1021 10 16 0.00 0.00
3:35 am 03:35 Clear 34 1 19 -7 56 56 SSW 17 28 30.15 1021 10 16 0.00 0.00
3:55 am 03:55 Clear 34 1 19 -7 56 56 SSW 14 22 30.15 1021 10 16 0.00 0.00
4:15 am 04:15 Clear 34 1 19 -7 56 56 SSW 16 26 30.12 1020 10 16 0.00 0.00
4:35 am 04:35 Clear 34 1 18 -8 51 51 SSW 15 24 30.12 1020 10 16 0.00 0.00
4:55 am 04:55 Clear 34 1 18 -8 51 51 SSW 14 22 30.09 1019 10 16 0.00 0.00
5:15 am 05:15 Clear 32 0 18 -8 55 55 SSW 13 20 30.09 1019 10 16 0.00 0.00
5:35 am 05:35 Clear 32 0 18 -8 55 55 SSW 14 22 30.09 1019 10 16 0.00 0.00
5:55 am 05:55 Clear 30 -1 18 -8 59 59 SSW 14 22 30.06 1018 10 16 0.00 0.00
6:15 am 06:15 Clear 30 -1 18 -8 59 59 SSW 12 19 30.06 1018 10 16 0.00 0.00
6:35 am 06:35 Clear 30 -1 18 -8 59 59 SSW 15 24 30.06 1018 10 16 0.00 0.00
6:55 am 06:55 Clear 30 -1 18 -8 59 59 SSW 15 24 30.06 1018 10 16 0.00 0.00
7:15 am 07:15 Clear 30 -1 18 -8 59 59 SSW 9 15 30.06 1018 10 16 0.00 0.00
7:35 am 07:35 Clear 28 -2 18 -8 64 64 SSW 10 17 30.06 1018 10 16 0.00 0.00
7:55 am 07:55 Sunny 28 -2 18 -8 64 64 S 12 19 30.03 1017 10 16 0.00 0.00
8:15 am 08:15 Sunny 30 -1 18 -8 59 59 SSW 15 24 30.03 1017 10 16 0.00 0.00
8:35 am 08:35 Sunny 32 0 18 -8 55 55 S 14 22 30.03 1017 10 16 0.00 0.00
8:55 am 08:55 Sunny 34 1 19 -7 56 56 SSW 13 20 30.00 1016 10 16 0.00 0.00
9:15 am 09:15 Sunny 36 2 19 -7 52 52 SSW 14 22 30.00 1016 10 16 0.00 0.00
9:35 am 09:35 Sunny 37 3 19 -7 48 48 SSW 18 30 29.97 1015 10 16 0.00 0.00
9:55 am 09:55 Sunny 39 4 21 -6 48 48 SSW 16 26 29.94 1014 10 16 0.00 0.00
10:15 am 10:15 Sunny 43 6 21 -6 42 42 SSW 18 30 29.94 1014 10 16 0.00 0.00
10:35 am 10:35 Sunny 45 7 21 -6 39 39 SSW 12 19 29.91 1013 10 16 0.00 0.00
10:55 am 10:55 Sunny 46 8 23 -5 40 40 SSW 15 24 29.88 1012 10 16 0.00 0.00
11:15 am 11:15 Sunny 50 10 23 -5 35 35 S 14 22 29.88 1012 10 16 0.00 0.00
11:35 am 11:35 Sunny 54 12 25 -4 33 33 SSW 16 26 29.85 1011 10 16 0.00 0.00
11:55 am 11:55 Sunny 55 13 23 -5 28 28 SSW 15 24 29.85 1011 10 16 0.00 0.00
12:15 pm 12:15 Sunny 57 14 25 -4 29 29 SSW 18 30 29.85 1011 10 16 0.00 0.00
12:35 pm 12:35 Sunny 57 14 23 -5 27 27 SSW 20 31 29.83 1010 10 16 0.00 0.00
12:55 pm 12:55 Sunny 61 16 25 -4 25 25 S 21 33 29.80 1009 10 16 0.00 0.00
1:15 pm 13:15 Sunny 63 17 25 -4 24 24 S 21 33 29.80 1009 10 16 0.00 0.00
1:35 pm 13:35 Sunny 66 19 25 -4 21 21 SSW 22 35 29.74 1007 10 16 0.00 0.00
1:55 pm 13:55 Sunny 66 19 25 -4 21 21 SSW 18 30 29.74 1007 10 16 0.00 0.00
2:15 pm 14:15 Sunny 66 19 25 -4 21 21 SSW 22 35 29.71 1006 10 16 0.00 0.00
2:35 pm 14:35 Sunny 70 21 25 -4 18 18 SSW 20 31 29.71 1006 10 16 0.00 0.00
2:55 pm 14:55 Sunny 70 21 25 -4 18 18 SSW 21 33 29.65 1004 10 16 0.00 0.00
3:15 pm 15:15 Sunny 72 22 27 -3 19 19 SSW 22 35 29.65 1004 10 16 0.00 0.00
3:35 pm 15:35 Sunny 72 22 27 -3 19 19 SSW 22 35 29.65 1004 10 16 0.00 0.00
3:55 pm 15:55 Sunny 73 23 28 -2 19 19 SSW 23 37 29.62 1003 10 16 0.00 0.00
4:15 pm 16:15 Sunny 72 22 28 -2 20 20 SSW 21 33 29.62 1003 10 16 0.00 0.00
4:35 pm 16:35 Sunny 73 23 28 -2 19 19 SSW 21 33 29.62 1003 10 16 0.00 0.00
4:55 pm 16:55 Sunny 75 24 28 -2 18 18 SSW 20 31 29.62 1003 10 16 0.00 0.00
5:15 pm 17:15 Sunny 75 24 30 -1 19 19 SSW 20 31 29.59 1002 10 16 0.00 0.00
5:35 pm 17:35 Sunny 75 24 30 -1 19 19 S 20 31 29.59 1002 10 16 0.00 0.00
5:55 pm 17:55 Sunny 75 24 30 -1 19 19 SSW 20 31 29.53 1000 10 16 0.00 0.00
6:15 pm 18:15 Sunny 73 23 30 -1 20 20 S 26 43 29.56 1001 10 16 0.00 0.00
6:35 pm 18:35 Sunny 73 23 30 -1 20 20 S 24 39 29.56 1001 10 16 0.00 0.00
6:55 pm 18:55 Sunny 73 23 28 -2 19 19 SSW 22 35 29.56 1001 10 16 0.00 0.00
7:15 pm 19:15 Sunny 70 21 30 -1 23 23 S 20 31 29.56 1001 10 16 0.00 0.00
7:35 pm 19:35 Sunny 68 20 30 -1 24 24 S 16 26 29.56 1001 10 16 0.00 0.00
7:55 pm 19:55 Clear 66 19 30 -1 26 26 S 18 30 29.59 1002 10 16 0.00 0.00
8:15 pm 20:15 Clear 64 18 30 -1 28 28 S 17 28 29.59 1002 10 16 0.00 0.00
8:35 pm 20:35 Clear 64 18 30 -1 28 28 S 16 26 29.59 1002 10 16 0.00 0.00
8:55 pm 20:55 Clear 63 17 30 -1 30 30 S 18 30 29.59 1002 10 16 0.00 0.00
9:15 pm 21:15 Clear 63 17 30 -1 30 30 S 18 30 29.59 1002 10 16 0.00 0.00
9:35 pm 21:35 Clear 63 17 30 -1 30 30 SSW 17 28 29.59 1002 10 16 0.00 0.00
9:55 pm 21:55 Clear 63 17 30 -1 30 30 S 16 26 29.59 1002 10 16 0.00 0.00
10:15 pm 22:15 Clear 61 16 30 -1 31 31 SSW 20 31 29.56 1001 10 16 0.00 0.00
10:35 pm 22:35 Clear 61 16 30 -1 31 31 SSW 18 30 29.56 1001 10 16 0.00 0.00
10:55 pm 22:55 Clear 61 16 30 -1 31 31 SSW 20 31 29.56 1001 10 16 0.00 0.00
11:15 pm 23:15 Clear 57 14 30 -1 36 36 SSW 17 28 29.59 1002 10 16 0.00 0.00
11:35 pm 23:35 Clear 57 14 28 -2 33 33 SW 14 22 29.59 1002 10 16 0.00 0.00
11:55 pm 23:55 Clear 59 15 28 -2 31 31 SW 16 26 29.59 1002 10 16 0.00 0.00

Powered by AerisWeather